Location: Vancouver
(49.2500°N, 123.1330°W)
Time: 21:23:59
(UTC-08:00)

BREEZE-M DEB (TANK) - Visible Passes

Search period start: 20 December 2014 00:00
Search period end: 30 December 2014 00:00
Orbit: 284 x 13605 km, 49.6° (Epoch: 20 December)

Date Brightness Start Highest point End Pass type
(mag) Time Alt. Az. Time Alt. Az. Time Alt. Az.
20 Dec 5.6 03:22:14 38° SSE 03:22:14 38° SSE 03:36:05 10° SE visible
21 Dec 5.6 04:52:51 32° SW 04:54:12 33° SSW 05:16:02 10° SSE visible
22 Dec 6.5 02:08:18 20° ESE 02:08:18 20° ESE 02:13:15 10° ESE visible
22 Dec 6.4 06:23:24 10° WSW 06:31:05 18° SW 06:47:31 10° S visible
23 Dec 5.8 03:38:49 36° S 03:38:49 36° S 03:53:59 10° SE visible
24 Dec 6.0 05:09:16 24° SW 05:11:33 25° SSW 05:31:08 10° S visible
25 Dec 6.5 02:24:36 22° SE 02:24:36 22° SE 02:31:10 10° SE visible
25 Dec 6.7 06:43:51 10° WSW 06:48:30 11° SW 06:54:57 10° SSW visible
26 Dec 6.0 03:54:58 32° S 03:54:58 32° S 04:10:33 10° SSE visible
27 Dec 6.4 05:25:16 17° SW 05:28:30 19° SW 05:43:58 10° S visible
28 Dec 6.5 02:40:28 23° SE 02:40:28 23° SE 02:48:11 10° SE visible
29 Dec 6.3 04:10:41 26° SSW 04:10:41 26° SSW 04:25:33 10° SSE visible
